[[{"header":{"parameterUnit":"m.s-1","parameterCategory":1,"la1":30.2991,"la2":30.254,"lo1":-89.0895,"lo2":-89.0444,"dy":0.0017,"dx":0.0017,"nx":28,"ny":28,"refTime":"2024-03-03T03:00:00:Z","depth":0,"parameterNumber":2,"parameterNumberName":"U-component_of_WINDS"},"data":[0,0,0,0,0,0,0,0,0,0,0,0,0,0,0,0,0,0,0,0,0,0,0,0,0,0,0,0,0,0,0,0,0,0,0,0,0,0,0,0,0,0,0,0,0,0,0,0,0,0,0,0,0,0,0,0,0,0,-6.7446,-6.7447,0,-6.7513,-6.7513,-6.7514,-6.7419,-6.7416,-6.7413,-6.7409,-6.7475,-6.748,-6.7485,0,0,0,0,0,0,0,0,0,0,0,0,0,-6.7235,-6.7239,-6.7446,-6.7447,-6.7447,-6.7513,-6.7513,-6.7514,-6.742,-6.7416,-6.7412,-6.7408,-6.7473,-6.7479,-6.7485,0,0,0,0,0,0,0,0,0,0,0,0,0,-6.7317,-6.7241,-6.7446,-6.7408,-6.7406,-6.7512,-6.7513,-6.7515,-6.7421,-6.7416,-6.7411,-6.7406,-6.7472,-6.7479,-6.7486,-6.7632,0,0,-6.7508,-6.7511,0,0,0,0,0,0,0,0,-6.7312,-6.7324,-6.7413,-6.7411,-6.7408,-6.7453,-6.7463,-6.7554,-6.7422,-6.7415,-6.7409,-6.7403,-6.7471,-6.7478,-6.7502,-6.7635,-6.7637,-6.7509,-6.7513,-6.7516,-6.7518,0,0,0,0,0,0,0,-6.7307,-6.7321,-6.7472,-6.7414,-6.7411,-6.7388,-6.7394,-6.748,-6.747,-6.7415,-6.7408,-6.7418,-6.7469,-6.7495,-6.7503,-6.7638,-6.7509,-6.7515,-6.752,-6.7522,-6.7894,-6.7899,0,0,0,0,0,0,-6.7306,-6.7317,-6.747,-6.7474,-6.7347,-6.7396,-6.7402,-6.7443,-6.7469,-6.7468,-6.7422,-6.7413,-6.7485,-6.7494,-6.7505,-6.7676,-6.7516,-6.7523,-6.7527,-6.7889,-6.7895,-6.7901,0,0,0,0,0,0,-6.7302,-6.732,-6.7467,-6.7394,-6.7411,-6.7405,-6.7451,-6.7447,-6.7473,-6.7475,-6.7472,-6.745,-6.7481,-6.7494,-6.7601,-6.7677,-6.7526,-6.7533,-6.7882,-6.7891,-6.7898,-6.802,0,0,0,0,0,0,-6.7296,-6.7319,-6.7375,-6.7396,-6.7415,-6.7563,-6.7456,-6.7452,-6.7486,-6.7475,-6.75,-6.75,-6.7479,-6.7591,-6.7608,-6.7684,-6.7539,-6.7875,-6.7886,-6.7896,-6.8009,-6.8032,-6.8051,0,0,0,0,0,-6.7289,-6.7406,-6.7378,-6.7397,-6.7484,-6.7567,-6.7578,-6.7552,-6.7493,-6.7548,-6.7549,-6.7499,-6.7667,-6.7602,-6.7621,-6.7701,-6.787,-6.7883,-6.7895,-6.8,-6.8027,-6.805,0,0,0,0,0,0,-6.7392,-6.7408,-6.7377,-6.7504,-6.7536,-6.7551,-6.762,-6.7582,-6.763,-6.7617,-6.7583,-6.7589,-6.7703,-6.7713,-6.7641,-6.7843,-6.7758,-6.7775,-6.7832,-6.7858,-6.7878,-6.7872,-6.7545,0,0,0,0,0,-6.743,-6.7497,-6.7507,-6.7618,-6.7636,-6.7626,-6.7661,-6.7639,-6.7669,-6.7681,-6.769,-6.7721,-6.7781,-6.782,-6.7875,-6.8012,-6.8015,-6.8076,-6.8097,-6.8114,-6.8127,-6.82,-6.8227,-6.7942,-6.7942,-6.7941,0,0,-6.7508,-6.7525,-6.7569,-6.764,-6.7661,-6.773,-6.7637,-6.7714,-6.7765,-6.7693,-6.7793,-6.7802,-6.7834,-6.7956,-6.801,-6.7968,-6.8208,-6.813,-6.8143,-6.8147,-6.8215,-6.8242,-6.8266,-6.795,-6.7949,-6.7947,0,0,-6.7685,-6.7706,-6.7801,-6.7825,-6.7859,-6.7852,-6.7876,-6.7898,-6.7901,-6.8002,-6.7949,-6.801,-6.8113,-6.8138,-6.8164,-6.8355,-6.831,-6.8375,-6.8481,-6.8552,-6.8574,-6.8594,-6.866,-6.8684,-6.8389,-6.8389,-6.839,0,-6.7777,-6.788,-6.7854,-6.7935,-6.7968,-6.7908,-6.8003,-6.8028,-6.8078,-6.8102,-6.8054,-6.8184,-6.8201,-6.8328,-6.8375,-6.8399,-6.8423,-6.8369,-6.8574,-6.8593,-6.8611,-6.8673,-6.8699,-6.8397,-6.8396,-6.8395,-6.8394,0,-6.7991,-6.8064,-6.8137,-6.8188,-6.8229,-6.8317,-6.8304,-6.8349,-6.8324,-6.8322,-6.8427,-6.8446,-6.8504,-6.8533,-6.851,-6.8658,-6.863,-6.8579,-6.8492,-6.8646,-6.8704,-6.8728,-6.8407,-6.8405,-6.8402,-6.8401,0,0,-6.823,-6.8269,-6.8296,-6.8318,-6.8354,-6.8409,-6.8496,-6.8553,-6.8592,-6.863,-6.87,-6.8791,-6.8745,-6.8775,-6.8754,-6.8817,-6.8965,-6.8758,-6.8758,-6.8793,-6.9127,-6.9163,-6.9191,-6.8937,-6.8942,-6.8945,-6.9124,0,-6.8405,-6.8554,-6.8535,-6.8677,-6.8743,-6.869,-6.8765,-6.8794,-6.8796,-6.8852,-6.8854,-6.8918,-6.8853,-6.8871,-6.8931,-6.8934,-6.9031,-6.8922,-6.9,-6.9003,-6.899,-6.9222,-6.9259,-6.9426,-6.9146,-6.915,-6.9153,0,-6.8628,-6.8676,-6.8825,-6.8852,-6.8879,-6.8946,-6.8998,-6.9054,-6.9087,-6.9084,-6.9119,-6.9088,-6.9174,-6.9089,-6.9206,-6.9132,-6.9164,-6.9171,-6.9177,-6.918,-6.9085,-6.9228,-6.9479,-6.9503,-6.9189,-6.9186,-6.9184,0,-6.8785,-6.8887,-6.8989,-6.9011,-6.9044,-6.9093,-6.9109,-6.9138,-6.9174,-6.922,-6.9244,-6.9299,-6.9329,-6.9372,-6.9357,-6.9297,-6.9477,-6.9391,-6.9475,-6.9475,-6.9511,-6.9508,-6.9768,-6.9538,-6.9538,-6.9538,-6.9537,0,-6.898,-6.9073,-6.906,-6.9122,-6.9225,-6.9203,-6.9305,-6.9315,-6.9341,-6.9404,-6.9363,-6.9423,-6.94,-6.9459,-6.9448,-6.9546,-6.956,-6.9559,-6.9554,-6.9561,-6.9561,-6.9578,-6.9565,-6.9544,-6.9543,-6.9541,-6.954,0,-6.9169,-6.9165,-6.9273,-6.9297,-6.9306,-6.938,-6.9401,-6.946,-6.946,-6.9541,-6.9558,-6.9558,-6.9626,-6.9616,-6.9691,-6.9683,-6.9804,-6.9787,-6.9793,-6.9788,-6.9871,-6.9862,-7.0147,-7.0183,-6.9934,-6.9937,-6.9939,0,-6.9292,-6.9363,-6.9396,-6.9436,-6.9456,-6.9521,-6.9559,-6.9541,-6.9581,-6.9626,-6.968,-6.9744,-6.9793,-6.9904,-6.991,-6.9967,-6.9949,-7.0045,-6.9957,-6.9961,-6.9947,-6.9941,-6.9947,-7.0061,-7.0064,-7.0066,-7.0068,0,-6.951,-6.9505,-6.9561,-6.9618,-6.9665,-6.9708,-6.9747,-6.9782,-6.9768,-6.9816,-6.9886,-6.9925,-7.0002,-7.0066,-7.012,-7.0136,-7.01,-7.0097,-7.0119,-7.0124,-7.0123,-7.0122,-6.9837,-7.0089,-7.0087,-7.0085,-7.0084,-7.0083,-6.9667,-6.9727,-6.976,-6.9825,-6.9854,-6.9892,-6.9948,-6.9957,-7.0015,-7.0077,-7.0063,-7.0141,-7.0174,-7.0244,-7.0266,-7.0326,-7.0291,-7.0323,-7.033,-7.0338,-7.0346,-7.0118,-7.0337,-7.0336,-7.0335,-7.0335,-7.0334,0,-6.988,-6.99,-6.996,-7.0017,-7.0068,-7.0033,-7.0075,-7.0119,-7.0189,-7.0223,-7.0274,-7.0354,-7.0417,-7.043,-7.0489,-7.0535,-7.052,-7.0551,-7.0545,-7.0549,-7.0376,-7.035,-7.0562,-7.0562,-7.0562,-7.0562,-7.0562,-7.0562,-6.9996,-7.0096,-7.0095,-7.0209,-7.0228,-7.0305,-7.0332,-7.0367,-7.0394,-7.0486,-7.0538,-7.0547,-7.0573,-7.0634,-7.069,-7.0692,-7.0714,-7.0752,-7.0747,-7.0584,-7.0561,-7.0539,-7.0514,-7.0758,-7.0758,-7.0914,-7.0916,-7.0917]},{"header":{"parameterUnit":"m.s-1","parameterCategory":1,"la1":30.2991,"la2":30.254,"lo1":-89.0895,"lo2":-89.0444,"dy":0.0017,"dx":0.0017,"nx":28,"ny":28,"refTime":"2024-03-03T03:00:00:Z","depth":0,"parameterNumber":3,"parameterNumberName":"V-component_of_WINDS"},"data":[0,0,0,0,0,0,0,0,0,0,0,0,0,0,0,0,0,0,0,0,0,0,0,0,0,0,0,0,0,0,0,0,0,0,0,0,0,0,0,0,0,0,0,0,0,0,0,0,0,0,0,0,0,0,0,0,0,0,1.9482,1.9482,0,1.9448,1.9448,1.9448,1.9406,1.9405,1.9404,1.9404,1.9367,1.9367,1.9367,0,0,0,0,0,0,0,0,0,0,0,0,0,1.9512,1.9512,1.9482,1.9482,1.9482,1.9448,1.9448,1.9447,1.9406,1.9405,1.9404,1.9403,1.9367,1.9367,1.9367,0,0,0,0,0,0,0,0,0,0,0,0,0,1.9491,1.9512,1.9483,1.9457,1.9454,1.9449,1.9448,1.9447,1.9406,1.9405,1.9404,1.9403,1.9368,1.9367,1.9367,1.9383,0,0,1.9365,1.9365,0,0,0,0,0,0,0,0,1.9492,1.949,1.9461,1.9459,1.9456,1.943,1.9445,1.9426,1.9406,1.9424,1.9404,1.9403,1.9389,1.9387,1.9382,1.9381,1.938,1.9365,1.9365,1.9364,1.9364,0,0,0,0,0,0,0,1.9493,1.9491,1.9469,1.9461,1.9457,1.9447,1.9443,1.9441,1.9412,1.9423,1.9419,1.9416,1.9387,1.9383,1.9381,1.9379,1.9365,1.9364,1.9364,1.9364,1.9392,1.9394,0,0,0,0,0,0,1.9499,1.9492,1.947,1.9468,1.9472,1.9447,1.9443,1.9439,1.9412,1.9407,1.9417,1.9414,1.9384,1.9382,1.938,1.9399,1.9364,1.9364,1.9363,1.9391,1.9393,1.9394,0,0,0,0,0,0,1.95,1.9497,1.9471,1.9479,1.9475,1.9448,1.9444,1.9439,1.9435,1.9408,1.9403,1.9418,1.9383,1.938,1.9383,1.9397,1.9364,1.9363,1.939,1.9392,1.9393,1.9436,0,0,0,0,0,0,1.9501,1.9498,1.9503,1.948,1.9475,1.9475,1.9445,1.9439,1.9434,1.943,1.9407,1.9403,1.9382,1.9384,1.9383,1.9395,1.9363,1.9389,1.9391,1.9393,1.9433,1.9439,1.9444,0,0,0,0,0,1.9502,1.9516,1.9504,1.9501,1.9481,1.9476,1.9473,1.945,1.9435,1.9441,1.9425,1.9403,1.9396,1.9385,1.9383,1.9396,1.9388,1.939,1.9393,1.9431,1.9438,1.9444,0,0,0,0,0,0,1.954,1.9512,1.9499,1.9505,1.9494,1.9469,1.9475,1.9458,1.9449,1.9446,1.9417,1.9413,1.9419,1.9407,1.9396,1.9411,1.9389,1.9391,1.9419,1.9425,1.943,1.9433,1.9362,0,0,0,0,0,1.955,1.9548,1.9523,1.9532,1.9527,1.9503,1.9499,1.9483,1.9469,1.9464,1.9447,1.9434,1.9429,1.9426,1.942,1.9432,1.9427,1.944,1.9445,1.9449,1.9451,1.9459,1.9465,1.9402,1.9402,1.9402,0,0,1.9569,1.9554,1.9554,1.9539,1.9528,1.9528,1.9498,1.9498,1.9497,1.9463,1.9465,1.9453,1.9437,1.9445,1.9448,1.9436,1.9468,1.9452,1.9456,1.9456,1.9462,1.9468,1.9473,1.9404,1.9403,1.9403,0,0,1.9604,1.9592,1.9598,1.9588,1.9573,1.9557,1.9559,1.9537,1.9528,1.953,1.9505,1.9504,1.9495,1.9486,1.948,1.9515,1.9496,1.9514,1.9541,1.9548,1.9553,1.9557,1.9571,1.9576,1.9516,1.9516,1.9516,0,1.963,1.9627,1.9604,1.9606,1.9601,1.9572,1.9579,1.957,1.9553,1.9551,1.9538,1.9528,1.9515,1.9521,1.953,1.9526,1.9528,1.9516,1.9554,1.9558,1.9562,1.9575,1.958,1.9518,1.9518,1.9518,1.9518,0,1.9661,1.966,1.9667,1.9653,1.9649,1.9653,1.9631,1.9629,1.9614,1.96,1.9603,1.9588,1.9579,1.9579,1.9563,1.9584,1.9577,1.956,1.9536,1.9571,1.9582,1.9587,1.9522,1.9521,1.952,1.9519,0,0,1.9717,1.9691,1.9695,1.9689,1.9671,1.967,1.9674,1.9666,1.9666,1.9656,1.9659,1.9654,1.9639,1.9633,1.9616,1.9622,1.9653,1.9604,1.9604,1.9615,1.9676,1.969,1.9696,1.964,1.9641,1.9642,1.9678,0,1.9749,1.9754,1.9734,1.9745,1.9745,1.9719,1.9723,1.9713,1.97,1.9698,1.9684,1.9682,1.9661,1.9658,1.9663,1.9648,1.9665,1.9645,1.9644,1.9644,1.9649,1.9702,1.9715,1.975,1.9682,1.9683,1.9684,0,1.9786,1.978,1.9791,1.9775,1.9774,1.9778,1.977,1.9769,1.9757,1.9748,1.9742,1.9724,1.9728,1.9706,1.9711,1.9698,1.9697,1.969,1.9691,1.969,1.9666,1.9703,1.976,1.9766,1.969,1.969,1.9689,0,1.9828,1.9822,1.9828,1.9824,1.9805,1.9808,1.9801,1.9788,1.9786,1.9779,1.9778,1.9772,1.9768,1.9764,1.9745,1.9731,1.9754,1.973,1.9747,1.9747,1.9752,1.9752,1.9811,1.9751,1.9751,1.975,1.975,0,1.9865,1.9874,1.9847,1.9851,1.986,1.9838,1.9848,1.9837,1.9827,1.9829,1.9806,1.9808,1.9783,1.9783,1.9768,1.9776,1.9774,1.9767,1.9763,1.9769,1.977,1.9768,1.9765,1.9752,1.9751,1.9751,1.9751,0,1.9913,1.9895,1.9901,1.9883,1.9879,1.9887,1.9872,1.9875,1.9862,1.9866,1.9865,1.9845,1.9844,1.9825,1.9819,1.9809,1.9823,1.9814,1.9827,1.9825,1.9843,1.9842,1.9903,1.991,1.9845,1.9845,1.9846,0,1.9938,1.9944,1.9928,1.9928,1.9922,1.9922,1.992,1.9899,1.9898,1.9887,1.9893,1.989,1.9887,1.9887,1.9872,1.9868,1.9859,1.9881,1.9858,1.9865,1.9861,1.9861,1.9862,1.9886,1.9886,1.9887,1.9888,0,1.9986,1.9977,1.9975,1.9972,1.997,1.9966,1.996,1.9961,1.9938,1.9939,1.9938,1.9936,1.9932,1.993,1.9924,1.9916,1.9899,1.9895,1.9899,1.9906,1.9914,1.9911,1.9841,1.9894,1.9893,1.9893,1.9892,1.9892,2.0023,2.0029,2.0019,2.0018,2.0012,2.0008,2.0011,1.9999,1.9999,1.9994,1.9982,1.9984,1.9974,1.9965,1.9959,1.996,1.9949,1.9955,1.9956,1.9958,1.9962,1.9913,1.9959,1.9959,1.9959,1.9959,1.9958,0,2.0071,2.0064,2.0063,2.0057,2.0057,2.0042,2.0035,2.0036,2.0038,2.0031,2.003,2.003,2.0029,2.0015,2.0012,2.0017,2.0009,2.0017,2.0016,2.0015,1.9971,1.9969,2.0023,2.0023,2.0023,2.0023,2.0023,2.0023,2.0095,2.0104,2.0095,2.0101,2.0093,2.0096,2.0094,2.009,2.0085,2.0087,2.0086,2.0077,2.0068,2.0065,2.0064,2.006,2.006,2.0071,2.0065,2.0024,2.0018,2.0012,2.0009,2.0071,2.0072,2.0108,2.0109,2.0109]}]]